TimeEST,TemperatureF,Dew PointF,Humidity,Sea Level PressureIn,VisibilityMPH,Wind Direction,Wind SpeedMPH,Gust SpeedMPH,PrecipitationIn,Events,Conditions,WindDirDegrees,DateUTC
12:54 AM,55.4,53.6,94,29.75,10.0,South,13.8,-,N/A,Rain,Light Rain,180,2011-11-27 05:54:00
1:54 AM,55.9,53.1,90,29.74,9.0,South,15.0,-,0.00,Rain,Light Rain,190,2011-11-27 06:54:00
2:06 AM,55.4,53.6,94,29.75,4.0,South,15.0,-,0.04,Rain,Heavy Rain,190,2011-11-27 07:06:00
2:47 AM,55.4,53.6,94,29.74,8.0,SW,9.2,-,0.09,Rain,Light Rain,220,2011-11-27 07:47:00
2:54 AM,55.0,53.1,93,29.75,7.0,West,12.7,-,0.10,Rain,Light Rain,260,2011-11-27 07:54:00
3:09 AM,51.8,50.0,94,29.75,7.0,WNW,15.0,-,0.03,Rain,Rain,290,2011-11-27 08:09:00
3:54 AM,48.9,46.9,93,29.76,10.0,WNW,11.5,-,0.08,Rain,Light Rain,290,2011-11-27 08:54:00
4:54 AM,46.9,45.0,93,29.78,8.0,West,11.5,-,0.04,Rain,Rain,280,2011-11-27 09:54:00
5:54 AM,46.9,44.1,90,29.79,10.0,West,9.2,-,0.04,Rain,Light Rain,280,2011-11-27 10:54:00
6:35 AM,46.4,44.6,93,29.79,7.0,WNW,8.1,-,0.01,Rain,Light Rain,290,2011-11-27 11:35:00
6:54 AM,46.4,44.6,93,29.79,8.0,WNW,10.4,-,N/A,Rain,Light Rain,290,2011-11-27 11:54:00
7:54 AM,46.0,43.0,89,29.81,10.0,WNW,11.5,-,0.03,Rain,Light Rain,290,2011-11-27 12:54:00
8:54 AM,45.0,43.0,93,29.83,5.0,West,8.1,-,0.01,Rain,Light Rain,270,2011-11-27 13:54:00
9:54 AM,46.4,42.8,87,29.84,10.0,NW,11.5,-,N/A,Rain,Light Rain,320,2011-11-27 14:54:00
10:54 AM,45.0,41.0,86,29.86,10.0,NW,18.4,25.3,0.00,Rain,Light Rain,320,2011-11-27 15:54:00
11:54 AM,43.0,39.9,89,29.87,6.0,NNW,16.1,27.6,0.00,Rain,Light Rain,330,2011-11-27 16:54:00
12:54 PM,43.0,39.0,86,29.88,7.0,NNW,12.7,-,0.02,Rain,Light Rain,330,2011-11-27 17:54:00
1:05 PM,42.8,39.2,87,29.88,8.0,NNW,13.8,21.9,0.01,Rain,Light Rain,340,2011-11-27 18:05:00
1:54 PM,43.0,39.0,86,29.90,6.0,NNW,16.1,-,0.05,Rain,Light Rain,330,2011-11-27 18:54:00
2:54 PM,42.1,37.9,85,29.91,10.0,NNW,16.1,24.2,0.01,Rain,Light Rain,340,2011-11-27 19:54:00
3:51 PM,41.0,37.4,87,29.93,10.0,North,19.6,27.6,0.02,Rain,Light Rain,350,2011-11-27 20:51:00
3:54 PM,41.0,37.0,86,29.95,10.0,NNW,16.1,25.3,0.02,Rain,Light Rain,340,2011-11-27 20:54:00
4:45 PM,39.2,35.6,87,29.97,10.0,North,11.5,-,0.01,Rain,Light Rain,350,2011-11-27 21:45:00
4:54 PM,39.9,36.0,86,29.99,10.0,NNW,15.0,-,0.02,Rain,Light Rain,340,2011-11-27 21:54:00
5:16 PM,39.2,35.6,87,29.97,10.0,North,15.0,-,0.00,Rain,Light Rain,350,2011-11-27 22:16:00
5:54 PM,39.0,35.1,86,30.00,10.0,North,12.7,-,0.00,,Overcast,360,2011-11-27 22:54:00
6:24 PM,39.2,35.6,87,30.01,10.0,North,9.2,-,N/A,,Overcast,360,2011-11-27 23:24:00
6:54 PM,37.9,35.1,89,30.05,7.0,North,9.2,-,N/A,,Overcast,360,2011-11-27 23:54:00
7:08 PM,37.4,35.6,93,30.04,7.0,North,8.1,-,N/A,,Overcast,10,2011-11-28 00:08:00
7:46 PM,37.4,35.6,93,30.04,10.0,North,12.7,-,N/A,,Overcast,360,2011-11-28 00:46:00
7:54 PM,37.0,34.0,89,30.06,10.0,North,11.5,-,N/A,,Overcast,360,2011-11-28 00:54:00
8:01 PM,37.4,33.8,87,30.05,9.0,North,11.5,-,N/A,,Overcast,350,2011-11-28 01:01:00
8:54 PM,37.0,34.0,89,30.08,10.0,North,10.4,-,N/A,,Overcast,350,2011-11-28 01:54:00
9:02 PM,37.4,33.8,87,30.06,10.0,North,8.1,-,N/A,,Overcast,360,2011-11-28 02:02:00
9:12 PM,37.4,33.8,87,30.06,9.0,North,8.1,-,N/A,,Overcast,360,2011-11-28 02:12:00
9:21 PM,37.4,33.8,87,30.07,8.0,North,6.9,-,N/A,,Overcast,350,2011-11-28 02:21:00
9:41 PM,37.4,33.8,87,30.05,10.0,North,12.7,-,N/A,,Overcast,350,2011-11-28 02:41:00
9:54 PM,37.0,33.1,86,30.07,10.0,North,10.4,-,N/A,,Overcast,360,2011-11-28 02:54:00
10:17 PM,35.6,33.8,93,30.07,10.0,North,10.4,-,N/A,,Overcast,350,2011-11-28 03:17:00
10:37 PM,37.4,33.8,87,30.07,10.0,North,10.4,-,N/A,,Overcast,350,2011-11-28 03:37:00
10:54 PM,37.0,33.1,86,30.10,10.0,North,10.4,-,N/A,,Overcast,350,2011-11-28 03:54:00
11:54 PM,35.6,32.0,87,30.09,10.0,North,9.2,-,N/A,,Overcast,360,2011-11-28 04:54:00